Weather History for KMWT - December, 2011

Change the Weather History Date:

Friday, December 23, 2011

  Actual Average (KHOT) Record (KHOT)
Temperature  
Mean Temperature 38 °F -  
Max Temperature 42 °F 51 °F 73 °F (1954)
Min Temperature 33 °F 30 °F -5 °F (1989)
Degree Days  
Heating Degree Days 28    
Moisture  
Dew Point 36 °F    
Average Humidity 88    
Maximum Humidity 100    
Minimum Humidity 76    
Precipitation  
Precipitation 0.00 in - - ()
Sea Level Pressure  
Sea Level Pressure 30.36 in    
Wind  
Wind Speed 0 mph (South)    
Max Wind Speed 4 mph    
Max Gust Speed -    
Visibility 6 miles    
Events      
Averages and records for this station are not official NWS values.
T = Trace of Precipitation, MM = Missing Value Source: NWS Daily Summary

Daily Weather History Graph

Daily Weather History Graph

Search for Another Location

Airport or City:

Trip Planner

Search our weather history database for the weather conditions in past years. The results will help you decide how hot, cold, wet, or windy it might be!

Date:

Astronomy

Dec. 23, 2011 Rise Set
Actual Time 7:18 AM CST 5:08 PM CST
Civil Twilight 6:50 AM CST 5:36 PM CST
Nautical Twilight 6:18 AM CST 6:08 PM CST
Astronomical Twilight 5:47 AM CST 6:38 PM CST
Moon 6:07 AM CST (12/23) 4:18 PM CST (12/23)
Length of Visible Light 10h 46m
Length of Day
9h 50m
Waning Crescent, 1% of the Moon is Illuminated
Dec 23
Waning Crescent
Dec 24
New
Jan 1
First Quarter
Jan 9
Full
Jan 16
Last Quarter

Hourly Weather History & Observations

Time (CST) Temp. Windchill Dew Point Humidity Pressure Visibility Wind Dir Wind Speed Gust Speed Precip Events Conditions
12:20 AM 37.4 °F - 37.4 °F 100% 30.22 in 1.8 mi Calm Calm - N/A   Clear
12:53 AM 36.0 °F - 35.1 °F 97% 30.25 in 2.5 mi Calm Calm - N/A   Clear
1:09 AM 35.6 °F - 35.6 °F 100% 30.24 in 1.2 mi Calm Calm - N/A   Clear
1:39 AM 33.8 °F - 33.8 °F 100% 30.25 in 3.0 mi Calm Calm - N/A   Clear
1:53 AM 34.0 °F - 34.0 °F 100% 30.28 in 2.5 mi Calm Calm - N/A   Mostly Cloudy
2:53 AM 37.0 °F - 36.0 °F 96% 30.28 in 6.0 mi Calm Calm - N/A   Mostly Cloudy
3:01 AM 35.6 °F - 35.6 °F 100% 30.27 in 1.8 mi Calm Calm - N/A   Mostly Cloudy
3:41 AM 33.8 °F - 33.8 °F 100% 30.28 in 3.0 mi Calm Calm - N/A   Mostly Cloudy
3:53 AM 34.0 °F - 34.0 °F 100% 30.31 in 4.0 mi Calm Calm - N/A   Overcast
4:53 AM 36.0 °F - 36.0 °F 100% 30.32 in 6.0 mi Calm Calm - N/A   Overcast
5:53 AM 39.9 °F - 37.9 °F 93% 30.34 in 9.0 mi Calm Calm - N/A   Overcast
6:17 AM 39.2 °F - 37.4 °F 93% 30.32 in 7.0 mi Calm Calm - N/A   Overcast
6:53 AM 39.9 °F - 37.9 °F 93% 30.35 in 7.0 mi Calm Calm - N/A   Overcast
7:09 AM 39.2 °F - 37.4 °F 93% 30.34 in 7.0 mi Calm Calm - N/A   Overcast
7:53 AM 39.9 °F 37.8 °F 37.0 °F 89% 30.39 in 6.0 mi Variable 3.5 mph - N/A   Overcast
8:53 AM 39.0 °F - 36.0 °F 89% 30.41 in 4.0 mi Calm Calm - N/A   Overcast
9:37 AM 39.2 °F - 37.4 °F 93% 30.40 in 4.0 mi Calm Calm - N/A   Overcast
9:53 AM 39.9 °F - 37.0 °F 89% 30.43 in 4.0 mi Calm Calm - N/A   Overcast
10:53 AM 39.9 °F - 36.0 °F 86% 30.43 in 5.0 mi Calm Calm - N/A   Overcast
11:16 AM 41.0 °F - 35.6 °F 81% 30.39 in 5.0 mi Calm Calm - N/A   Haze
11:53 AM 41.0 °F 39.0 °F 36.0 °F 82% 30.40 in 6.0 mi Variable 3.5 mph - N/A   Haze
12:53 PM 41.0 °F - 35.1 °F 79% 30.38 in 7.0 mi Calm Calm - N/A   Overcast
1:53 PM 41.0 °F - 36.0 °F 82% 30.38 in 7.0 mi Calm Calm - N/A   Overcast
2:10 PM 42.8 °F - 35.6 °F 76% 30.35 in 6.0 mi Calm Calm - N/A   Haze
2:53 PM 42.1 °F - 36.0 °F 79% 30.38 in 7.0 mi Calm Calm - N/A   Overcast
3:53 PM 42.1 °F - 36.0 °F 79% 30.39 in 7.0 mi Calm Calm - N/A   Overcast
4:53 PM 42.1 °F - 36.0 °F 79% 30.39 in 7.0 mi Calm Calm - N/A   Overcast
5:53 PM 41.0 °F - 36.0 °F 82% 30.40 in 8.0 mi Calm Calm - N/A   Overcast
6:53 PM 41.0 °F - 34.0 °F 76% 30.40 in 10.0 mi Calm Calm - N/A   Overcast
7:53 PM 39.9 °F 37.8 °F 33.1 °F 77% 30.41 in 10.0 mi North 3.5 mph - N/A   Overcast
8:53 PM 39.9 °F - 33.1 °F 77% 30.42 in 10.0 mi Calm Calm - N/A   Overcast
9:53 PM 39.9 °F - 34.0 °F 79% 30.43 in 10.0 mi Calm Calm - N/A   Overcast
10:53 PM 39.0 °F - 34.0 °F 82% 30.43 in 10.0 mi Calm Calm - N/A   Overcast
11:53 PM 37.9 °F - 34.0 °F 86% 30.43 in 9.0 mi Calm Calm - N/A   Overcast